{"data":{"norad_id":68610,"intl_designator":"2026-073J","name":"STARLINK-37105","alt_names":[],"object_type":"PAYLOAD","status":"ACTIVE","operator":null,"country":"US","launch_date":"2026-04-07","launch_site_code":"AFWTR","launch_vehicle":null,"mission":null,"orbit_class":"UNKNOWN","rcs_meters":null,"size_class":null,"mass_kg":null,"dimensions":null,"purposes":["comms"],"wikipedia_slug":null,"has_3d_model":false,"image_url":null,"decayed_at":null,"tle_current":{"epoch":"2026-05-25T04:00:03.998880Z","epoch_age_seconds":54600,"freshness":"FRESH","line1":"1 68610U 26073J   26145.16671295 -.01935755  00000+0 -21349-1 0  9990","line2":"2 68610  97.2852 344.6810 0001664  89.8314 268.9284 15.66147884  5882","mean_motion":15.66147884,"eccentricity":0.0001664,"inclination_deg":97.2852,"raan_deg":344.681,"arg_perigee_deg":89.8314,"mean_anomaly_deg":268.9284,"bstar":-0.021349,"rev_number":588,"period_min":91.945340201347,"perigee_km":368.81659839148,"apogee_km":371.06235824347,"semimajor_km":6748.0764783175,"source":"CELESTRAK","updated_at":"2026-05-25T13:38:21.967704Z"}}}